This demonstration page uses our WeatherBlox Daily Observations layout. Learn more.

Left ArrowRight Arrow

Hourly Observations for July 11, 2018

Temp ( °F °C ) Dew Point ( °F °C ) Humidity (%) Winds ( mph kmh ) Pressure ( in mb ) Visibility ( mi km ) Precip ( " mm )
12:51 am 00:51 Cloudy 78 25.6 63 17.2 60 60 SSW 10 17 29.92 1013 10 16.0934 N/A
1:51 am 01:51 Mostly Cloudy with Nearby Thunderstorms 74 23.3 65 18.3 74 74 E 9 15 29.91 1013 10 16.0934 N/A
2:22 am 02:22 Cloudy 73 23 64 18 74 74 E 12 19 29.88 1012 10 16.0934 N/A
2:51 am 02:51 Partly Cloudy with Light Rain 71 21.7 66 18.9 84 84 E 13 20 29.91 1013 10 16.0934 N/A
3:51 am 03:51 Mostly Clear with Light Rain 72 22.2 68 20 87 87 S 5 7 29.91 1013 10 16.0934 0.01 0.254
4:13 am 04:13 Partly Cloudy with Nearby Thunderstorms 71 21.7 68 20 90 90 S 6 9 29.91 1013 10 16.0934 0.01 0.254
4:36 am 04:36 Partly Cloudy 71 21.7 68 20 90 90 S 8 13 29.91 1013 10 16.0934 0.01 0.254
4:51 am 04:51 Mostly Clear 71 21.7 68 20 90 90 S 7 11 29.92 1013 10 16.0934 0.01 0.254
5:51 am 05:51 Mostly Sunny 71 21.7 67 19.4 87 87 N N/A 29.93 1013 10 16.0934 N/A
6:51 am 06:51 Sunny 73 22.8 67 19.4 81 81 SE 5 7 29.93 1013 10 16.0934 N/A
7:51 am 07:51 Sunny 76 24.4 67 19.4 74 74 N N/A 29.93 1013 10 16.0934 N/A
8:51 am 08:51 Sunny 80 26.7 62 16.7 54 54 ESE 7 11 29.91 1013 10 16.0934 N/A
9:51 am 09:51 Sunny 80 26.7 65 18.3 60 60 SSE 8 13 29.91 1013 10 16.0934 N/A
10:51 am 10:51 Partly Cloudy 82 27.8 64 17.8 55 55 VRB 7 11 29.91 1013 10 16.0934 N/A
11:51 am 11:51 Mostly Sunny 83 28.3 63 17.2 51 51 VRB 5 7 29.89 1012 10 16.0934 N/A
12:51 pm 12:51 Sunny 89 31.7 62 16.7 41 41 NE 7 11 29.82 1010 10 16.0934 N/A
1:51 pm 13:51 Mostly Cloudy 87 30.6 60 15.6 40 40 E 6 9 29.81 1009 10 16.0934 N/A
2:08 pm 14:08 Cloudy with Heavy Rain 81 27 66 19 62 62 undefined N/A 29.74 1007 1.75 2.816345 N/A
2:16 pm 14:16 Cloudy with Heavy Rain 74 23.3 67 19.4 79 79 N 14 22 29.8 1009 0.5 0.80467 0.32 8.128
2:23 pm 14:23 Cloudy with Rain 74 23.3 68 20 82 82 N 13 20 29.8 1009 2 3.21868 0.36 9.144
2:39 pm 14:39 Cloudy with Light Thunderstorms 77 25 68 20 74 74 NNE 13 20 29.77 1008 5 8.0467 0.42 10.668
2:51 pm 14:51 Mostly Cloudy with Thunderstorms 78 25.6 69 20.6 74 74 NNE 14 22 29.83 1010 10 16.0934 0.42 10.668
3:27 pm 15:27 Partly Cloudy with Nearby Thunderstorms 78 25.6 68 20 71 71 N 6 9 29.77 1008 10 16.0934 N/A
3:47 pm 15:47 Sunny 79 26 70 21 74 74 VRB 6 9 29.77 1008 10 16.0934 N/A
3:51 pm 15:51 Sunny 79 26.1 67 19.4 67 67 E 9 15 29.83 1010 10 16.0934 N/A
4:51 pm 16:51 Cloudy 81 27.2 67 19.4 62 62 ENE 9 15 29.83 1010 10 16.0934 N/A
5:51 pm 17:51 Sunny 79 26.1 64 17.8 60 60 NNE 15 24 29.84 1011 10 16.0934 N/A
6:51 pm 18:51 Mostly Cloudy 78 25.6 63 17.2 60 60 E 6 9 29.85 1011 10 16.0934 N/A
7:51 pm 19:51 Mostly Cloudy 77 25 63 17.2 62 62 ENE 10 17 29.87 1011 10 16.0934 N/A
8:51 pm 20:51 Partly Cloudy with Light Rain 72 22.2 69 20.6 91 91 N 5 7 29.89 1012 10 16.0934 0.02 0.508
9:51 pm 21:51 Clear 73 22.8 70 21.1 90 90 N N/A 29.92 1013 10 16.0934 N/A
10:51 pm 22:51 Cloudy 73 22.8 67 19.4 81 81 E 7 11 29.93 1013 10 16.0934 N/A
11:51 pm 23:51 Mostly Cloudy 73 22.8 67 19.4 81 81 E 6 9 29.92 1013 10 16.0934 N/A

Powered by AerisWeather